Terug naar catalogus

SL-12 DEB

LostHEO
NORAD 45040·DEBRIS·🇷🇺 Russia

Gelanceerd Dec 14, 2009 vanaf Baikonur Cosmodrome

Loading…

Volgende Passages (komende 24 uur)

TLE

VerouderdSource: Space-Track

Epoch: Dec 12, 2021, 10:28 UTC

1 45040U 09070R   21346.43666282  .00044443  00000-0  17038-1 0  9991
2 45040  64.4838  99.6391 5352844   0.2920 359.8964  4.98437881 31447

Volg SL-12 DEB in realtime met AllMySat

Download on the App Store